TimeEST,TemperatureF,Dew PointF,Humidity,Sea Level PressureIn,VisibilityMPH,Wind Direction,Wind SpeedMPH,Gust SpeedMPH,PrecipitationIn,Events,Conditions,WindDirDegrees,DateUTC
12:05 AM,32.0,26.6,80,29.91,10.0,Calm,Calm,-,N/A,,Overcast,0,2013-02-05 05:05:00
12:25 AM,32.0,24.8,75,29.91,10.0,Calm,Calm,-,N/A,,Overcast,0,2013-02-05 05:25:00
12:50 AM,32.0,26.6,80,29.91,10.0,Calm,Calm,-,N/A,,Overcast,0,2013-02-05 05:50:00
1:10 AM,32.0,26.6,80,29.91,10.0,Calm,Calm,-,N/A,,Overcast,0,2013-02-05 06:10:00
1:30 AM,32.0,26.6,80,29.91,10.0,Calm,Calm,-,N/A,,Overcast,0,2013-02-05 06:30:00
1:50 AM,32.0,28.4,87,29.90,10.0,Calm,Calm,-,N/A,,Overcast,0,2013-02-05 06:50:00
2:15 AM,32.0,26.6,80,29.90,10.0,Calm,Calm,-,N/A,,Overcast,0,2013-02-05 07:15:00
2:35 AM,32.0,26.6,80,29.89,10.0,Calm,Calm,-,N/A,,Overcast,0,2013-02-05 07:35:00
2:55 AM,32.0,28.4,87,29.89,10.0,Calm,Calm,-,N/A,,Overcast,0,2013-02-05 07:55:00
3:15 AM,32.0,26.6,80,29.89,10.0,Calm,Calm,-,N/A,,Overcast,0,2013-02-05 08:15:00
3:40 AM,32.0,26.6,80,29.89,10.0,Calm,Calm,-,N/A,,Overcast,0,2013-02-05 08:40:00
4:00 AM,32.0,26.6,80,29.89,10.0,Calm,Calm,-,N/A,,Overcast,0,2013-02-05 09:00:00
4:20 AM,32.0,26.6,80,29.89,10.0,North,4.6,-,N/A,,Overcast,10,2013-02-05 09:20:00
4:45 AM,32.0,28.4,87,29.89,10.0,NNE,3.5,-,N/A,,Overcast,30,2013-02-05 09:45:00
5:05 AM,32.0,28.4,87,29.89,7.0,Calm,Calm,-,N/A,Snow,Light Snow,0,2013-02-05 10:05:00
5:25 AM,32.0,28.4,87,29.90,10.0,North,4.6,-,N/A,,Overcast,360,2013-02-05 10:25:00
5:45 AM,32.0,28.4,87,29.90,10.0,North,3.5,-,N/A,,Overcast,10,2013-02-05 10:45:00
5:50 AM,32.0,28.4,87,29.91,10.0,North,3.5,-,N/A,,Overcast,10,2013-02-05 10:50:00
6:48 AM,30.2,28.4,93,29.92,10.0,NNE,6.9,-,N/A,,Overcast,30,2013-02-05 11:48:00
8:48 AM,32.0,28.4,87,29.95,7.0,NNE,6.9,-,N/A,,Overcast,20,2013-02-05 13:48:00
9:50 AM,33.8,28.4,81,-9999,7.0,NNE,3.5,-,N/A,,Overcast,30,2013-02-05 14:50:00
10:50 AM,-9999,-9999,N/A,-9999,7.0,NNE,5.8,-,N/A,,Overcast,30,2013-02-05 15:50:00
12:45 PM,37.4,30.2,75,29.91,7.0,Calm,Calm,-,N/A,,Overcast,0,2013-02-05 17:45:00
1:50 PM,37.4,30.2,75,29.88,7.0,Calm,Calm,-,N/A,,Overcast,0,2013-02-05 18:50:00
2:50 PM,37.4,30.2,75,29.88,7.0,North,4.6,-,N/A,,Overcast,10,2013-02-05 19:50:00
4:56 PM,33.8,33.8,100,29.90,4.0,Variable,3.5,-,N/A,,Overcast,0,2013-02-05 21:56:00
5:49 PM,32.0,32.0,100,29.90,4.0,Calm,Calm,-,N/A,,Scattered Clouds,0,2013-02-05 22:49:00
6:50 PM,28.4,28.4,100,29.91,4.0,Calm,Calm,-,N/A,,Scattered Clouds,0,2013-02-05 23:50:00
7:53 PM,28.4,28.4,100,29.92,4.0,Calm,Calm,-,N/A,,Overcast,0,2013-02-06 00:53:00
8:00 PM,30.2,30.2,100,29.92,2.0,Calm,Calm,-,N/A,,Overcast,0,2013-02-06 01:00:00
8:20 PM,30.2,30.2,100,29.92,1.2,Calm,Calm,-,N/A,,Scattered Clouds,0,2013-02-06 01:20:00
8:40 PM,28.4,28.4,100,29.93,1.8,Calm,Calm,-,N/A,,Scattered Clouds,0,2013-02-06 01:40:00
9:00 PM,30.2,30.2,100,29.93,1.5,Calm,Calm,-,N/A,,Overcast,0,2013-02-06 02:00:00
9:25 PM,30.2,30.2,100,29.94,1.8,Calm,Calm,-,N/A,,Overcast,0,2013-02-06 02:25:00
9:45 PM,30.2,30.2,100,29.96,2.0,Calm,Calm,-,N/A,,Overcast,0,2013-02-06 02:45:00
10:05 PM,30.2,30.2,100,29.95,2.5,Calm,Calm,-,N/A,,Overcast,0,2013-02-06 03:05:00
10:25 PM,32.0,32.0,100,29.96,3.0,Calm,Calm,-,N/A,,Overcast,0,2013-02-06 03:25:00
10:50 PM,32.0,32.0,100,29.96,3.0,Calm,Calm,-,N/A,,Overcast,0,2013-02-06 03:50:00
11:10 PM,32.0,32.0,100,29.96,2.5,SE,3.5,-,N/A,,Overcast,140,2013-02-06 04:10:00
11:30 PM,32.0,32.0,100,29.96,3.0,SE,3.5,-,N/A,,Overcast,130,2013-02-06 04:30:00
11:50 PM,32.0,32.0,100,29.96,3.0,ENE,3.5,-,N/A,,Overcast,60,2013-02-06 04:50:00